Regional Weather Roundup
Issued by NWS

Home | Current Version | Previous Version | Text Only | Print | Product List | Glossary Off
Versions: 1 2 3 4 5 6 7 8 9 10 11 12 13 14 15 16 17 18 19 20 21 22 23 24 25 26 27 28 29 30 31 32 33 34 35 36 37 38 39 40 41 42 43 44 45 46 47 48 49 50

000
ASUS43 KLOT 271206
RWRIL

ILLINOIS REGIONAL WEATHER ROUNDUP
NATIONAL WEATHER SERVICE CHICAGO/ROMEOVILLE IL
600 AM CST SAT DEC 27 2014

NOTE: "FAIR" INDICATES FEW OR NO CLOUDS BELOW 12,000 FEET WITH NO
SIGNIFICANT WEATHER AND/OR OBSTRUCTIONS TO VISIBILITY.

* THESE STATIONS ARE NOT UNDER NWS QUALITY CONTROL. THEY ALSO MAY NOT
  REPORT WEATHER SUCH AS PRECIPITATION OR FOG.

ILZ001-002-007-009-015-016-024-271300-
NORTHWEST ILLINOIS

CITY           SKY/WX    TMP DP  RH WIND       PRES   REMARKS
MOLINE         RAIN      49  47  93 W18       29.92R FOG
6HR MIN TEMP:  47; 6HR MAX TEMP:  50; 6HR PCP:  0.02;

STERLING*      CLOUDY    48  45  87 SW6       29.92S
SAVANNA*       DRIZZLE   48  46  92 S14       29.90R
$$

ILZ003-004-008-010-011-017-018-271300-
NORTH CENTRAL ILLINOIS

CITY           SKY/WX    TMP DP  RH WIND       PRES   REMARKS
ROCKFORD       CLOUDY    46  43  89 S13       29.92F
6HR MIN TEMP:  44; 6HR MAX TEMP:  46; 6HR PCP: TRACE;

FREEPORT*      CLOUDY    46  45  97 S16G22    29.91R FOG
ROCHELLE*      CLOUDY    46  45  97 S16       29.93S
DE KALB*       CLOUDY    44  43  98 S14       29.95R FOG
PERU*          CLOUDY    48  46  90 S16       29.97S
$$

ILZ005-006-012>014-019>023-271300-
NORTHEAST ILLINOIS

CITY           SKY/WX    TMP DP  RH WIND       PRES   REMARKS
CHICAGO-OHARE  CLOUDY    46  44  93 S14       29.95S
6HR MIN TEMP:  43; 6HR MAX TEMP:  47;

CHICAGO-MIDWAY CLOUDY    48  44  86 S15       29.98R
6HR MIN TEMP:  47; 6HR MAX TEMP:  48;

AURORA         CLOUDY    47  43  86 S12       29.96R FOG
6HR MIN TEMP:  44; 6HR MAX TEMP:  47;

LANSING*       CLOUDY    46  44  95 SW15      30.00R
JOLIET*        CLOUDY    46  44  93 SW9       29.99R
WAUKEGAN       CLOUDY    46  43  89 S14       29.93S
6HR MIN TEMP:  44; 6HR MAX TEMP:  46;

DUPAGE AIRPORT CLOUDY    46  44  93 S12       29.95R
6HR MIN TEMP:  44; 6HR MAX TEMP:  46;

KANKAKEE*      CLOUDY    46  45  96 S14       30.02R
WHEELING       CLOUDY    47  44  90 S14       29.97R
6HR MIN TEMP:  44; 6HR MAX TEMP:  47;

MORRIS*        CLOUDY    47  46  97 SW13G23   29.98R
ROMEOVILLE*    CLOUDY    46  45  97 SW17      29.98R
NORTHERLY ISL    N/A     46  43  89 SW12        N/A
$$

LMZ740>746-271300-
SOUTHERN LAKE MICHIGAN

STATION/POSITION SKY/WX   TEMP    WIND        PRES    VSBY  WAVE
                          AIR SEA DIR/SP/G                  HT/PER
                          (F)     (DEG/KT/KT) (MB)    (MI)  (FT/S)
WAUKEGAN HARBOR            46     210/ 16/ 21   N/A
HARRISON CRIB              45     200/ 21/ 24   N/A
BURNHAM HARBOR             46     200/ 10/ 16   N/A
CALUMET HARBOR             46     190/ 11/ 17 1014.3R
MICHIGAN CITY              45     170/ 16/ 20   N/A
$$

ILZ025>027-034>036-040-047-049-050-058-095>099-271300-
WEST-CENTRAL ILLINOIS

CITY           SKY/WX    TMP DP  RH WIND       PRES   REMARKS
QUINCY         CLOUDY    45  42  89 W12       30.01R
GALESBURG*     DRIZZLE   48  46  93 S15G21    29.95S
MACOMB*        DRIZZLE   48  47  97 S12       29.99R
JACKSONVILLE*  CLOUDY    49  47  92 S9        30.02R
PITTSFIELD*    CLOUDY    49  47  91 S7        30.02R
$$

ILZ028>032-037-038-041>044-048-051>054-059>061-271300-
CENTRAL ILLINOIS

CITY           SKY/WX    TMP DP  RH WIND       PRES   REMARKS
PONTIAC        CLOUDY    47  46  95 SW14      30.01R
BLOOMINGTON    CLOUDY    46  46 100 SW17      30.03R FOG
DECATUR        CLOUDY    47  45  93 SW15G23   30.06R
PEORIA         CLOUDY    49  45  86 S12       29.99F
6HR MIN TEMP:  48; 6HR MAX TEMP:  49;

LACON*         CLOUDY    47  45  91 S10       29.96F
LINCOLN*       LGT RAIN  48  46  93 S9        30.03S
SPRINGFIELD    CLOUDY    48  45  89 S13       30.03F
6HR MIN TEMP:  47; 6HR MAX TEMP:  48; 6HR PCP:  0.01;

TAYLORVILLE    CLOUDY    45  45 100 SW13      30.07R
$$

ILZ033-039-045-046-055>057-062-063-271300-
EAST-CENTRAL ILLINOIS

CITY           SKY/WX    TMP DP  RH WIND       PRES   REMARKS
CHAMPAIGN      CLOUDY    46  44  93 S15       30.05R
DANVILLE*      CLOUDY    45  44  97 S16       30.04R
RANTOUL*       CLOUDY    47  46  96 SW13G20   30.04R FOG
MATTOON        CLOUDY    45  44  97 S10       30.06S
PARIS*         CLOUDY    45  44  97 S12       30.09R
$$

ILZ079-100>102-271300-
SOUTHWEST ILLINOIS

CITY           SKY/WX    TMP DP  RH WIND       PRES   REMARKS
CAHOKIA*       CLOUDY    48  46  93 S6        30.08R
SPARTA*        CLOUDY    46  45  97 S10       30.10S
$$

ILZ064>066-069>071-074>076-080>082-084>086-088>090-092>094-271300-
SOUTH-CENTRAL ILLINOIS

CITY           SKY/WX    TMP DP  RH WIND       PRES   REMARKS
CARBONDALE     CLOUDY    47  45  93 S12       30.12R
6HR MIN TEMP:  46; 6HR MAX TEMP:  50; 6HR PCP:  0.11;

CAIRO*         CLOUDY    49  49 100 SE7       30.14S
EFFINGHAM*     CLOUDY    46  43  89 S9        30.10R
MARION         CLOUDY    48  46  93 S8G16     30.13R
MT. VERNON     CLOUDY    46  41  81 S9        30.12R
CENTRALIA*     CLOUDY    46  44  90 S9        30.10R
SALEM*         CLOUDY    48  46  91 S9        30.10R
METROPOLIS*    CLOUDY    46  46 100 SE3       30.14F FOG
$$

ILZ067-068-072-073-078-083-087-091-271300-
SOUTHEAST ILLINOIS

CITY           SKY/WX    TMP DP  RH WIND       PRES   REMARKS
LAWRENCEVILLE  CLOUDY    44  43  96 S12       30.13S FOG
FLORA*         MOCLDY    45  44  97 S9        30.11R
FAIRFIELD*     CLOUDY    46  45  97 S7        30.12R
HARRISBURG*    CLOUDY    47  47  99 S8        30.14S
ROBINSON*      LGT RAIN  44  43  96 S10       30.12S
CARMI*         CLOUDY    47  47 100 S9        30.13S
$$

ABBREVIATIONS USED IN REMARKS
   TC - TEMPERATURE IN CELSIUS
  WCI - WIND CHILL INDEX
   HX - HEAT INDEX
  VSB - VISIBILITY
$$




USA.gov is the U.S. government's official web portal to all federal, state and local government web resources and services.